GMINJ EHLE-EGHH

Flight info

Callsign GMINJ
Flight time N/A
Altitude 8000
Route IDRID L980 SABER M40 UMBUR
Aircraft DA42/L-SDFGRY/C

Departure

Time N/A
Airport Lelystad Airport (EHLE)

Arrival

Time 2026-05-05 21:06
Airport Bournemouth Airport (EGHH)
Time Latitude Longitude Altitude Speed Heading
2026-05-05 19:35 52.08147 3.67161 7930 ft 174 kts 234°
2026-05-05 19:36 52.07402 3.65619 7929 ft 173 kts 234°
2026-05-05 19:36 52.06652 3.64080 7931 ft 174 kts 234°
2026-05-05 19:36 52.05900 3.62528 7930 ft 175 kts 234°
2026-05-05 19:36 52.05147 3.60978 7930 ft 175 kts 235°
2026-05-05 19:37 52.04393 3.59422 7929 ft 175 kts 234°
2026-05-05 19:37 52.03646 3.57895 7929 ft 175 kts 233°
2026-05-05 19:37 52.02892 3.56342 7925 ft 175 kts 234°
2026-05-05 19:37 52.02138 3.54791 7926 ft 174 kts 233°
2026-05-05 19:38 52.01387 3.53252 7923 ft 173 kts 233°
2026-05-05 19:38 52.00637 3.51717 7934 ft 173 kts 233°
2026-05-05 19:38 51.99889 3.50184 7935 ft 174 kts 235°
2026-05-05 19:38 51.99179 3.48599 7937 ft 174 kts 236°
2026-05-05 19:39 51.98703 3.47554 7932 ft 174 kts 235°
2026-05-05 19:39 51.97980 3.45985 7932 ft 174 kts 236°
2026-05-05 19:39 51.97262 3.44401 7932 ft 174 kts 237°
2026-05-05 19:39 51.96547 3.42813 7931 ft 174 kts 236°
2026-05-05 19:40 51.95829 3.41226 7930 ft 174 kts 236°
2026-05-05 19:40 51.95114 3.39640 7932 ft 175 kts 238°
2026-05-05 19:40 51.94388 3.38039 7923 ft 177 kts 237°
2026-05-05 19:40 51.93667 3.36439 7923 ft 175 kts 236°
2026-05-05 19:41 51.92941 3.34846 7926 ft 176 kts 237°
2026-05-05 19:41 51.92219 3.33248 7926 ft 175 kts 236°
2026-05-05 19:41 51.91496 3.31659 7926 ft 176 kts 237°
2026-05-05 19:41 51.90782 3.30073 7938 ft 176 kts 236°
2026-05-05 19:42 51.90057 3.28484 7940 ft 176 kts 237°
2026-05-05 19:42 51.89331 3.26887 7942 ft 177 kts 237°
2026-05-05 19:42 51.88601 3.25278 7941 ft 177 kts 238°
2026-05-05 19:42 51.87870 3.23665 7942 ft 178 kts 236°
2026-05-05 19:43 51.87140 3.22061 7939 ft 176 kts 236°
2026-05-05 19:43 51.86408 3.20465 7941 ft 177 kts 237°
2026-05-05 19:43 51.85679 3.18860 7936 ft 177 kts 236°
2026-05-05 19:43 51.85037 3.17191 7933 ft 174 kts 250°
2026-05-05 19:44 51.84793 3.15307 7932 ft 170 kts 267°
2026-05-05 19:44 51.84668 3.13404 7933 ft 170 kts 268°
2026-05-05 19:44 51.84550 3.11499 7933 ft 170 kts 267°
2026-05-05 19:44 51.84430 3.09622 7938 ft 170 kts 271°
2026-05-05 19:45 51.84308 3.07705 7939 ft 171 kts 269°
2026-05-05 19:45 51.84180 3.05797 7942 ft 170 kts 265°
2026-05-05 19:45 51.84058 3.03894 7941 ft 170 kts 268°
2026-05-05 19:45 51.83943 3.01996 7941 ft 170 kts 271°
2026-05-05 19:46 51.83819 3.00092 7941 ft 170 kts 270°
2026-05-05 19:46 51.83688 2.98187 7942 ft 170 kts 267°
2026-05-05 19:46 51.83561 2.96288 7940 ft 170 kts 269°
2026-05-05 19:46 51.83438 2.94391 7942 ft 170 kts 270°
2026-05-05 19:47 51.83314 2.92485 7938 ft 171 kts 270°
2026-05-05 19:47 51.83188 2.90579 7935 ft 170 kts 266°
2026-05-05 19:47 51.83061 2.88685 7937 ft 169 kts 270°
2026-05-05 19:47 51.82942 2.86819 7941 ft 169 kts 271°
2026-05-05 19:48 51.82813 2.84927 7946 ft 169 kts 271°
2026-05-05 19:48 51.82685 2.83027 7942 ft 170 kts 266°
2026-05-05 19:48 51.82556 2.81133 7942 ft 169 kts 271°
2026-05-05 19:48 51.82430 2.79236 7943 ft 169 kts 268°
2026-05-05 19:49 51.82306 2.77342 7940 ft 169 kts 268°
2026-05-05 19:49 51.82179 2.75454 7941 ft 169 kts 268°
2026-05-05 19:49 51.82051 2.73561 7940 ft 169 kts 267°
2026-05-05 19:49 51.81922 2.71673 7946 ft 169 kts 271°
2026-05-05 19:50 51.81788 2.69779 7947 ft 170 kts 267°
2026-05-05 19:50 51.81665 2.67881 7945 ft 170 kts 268°
2026-05-05 19:50 51.81536 2.66014 7944 ft 169 kts 269°
2026-05-05 19:50 51.81410 2.64124 7942 ft 169 kts 268°
2026-05-05 19:51 51.81279 2.62239 7944 ft 169 kts 267°
2026-05-05 19:51 51.81150 2.60355 7944 ft 169 kts 271°
2026-05-05 19:51 51.81018 2.58461 7945 ft 170 kts 271°
2026-05-05 19:51 51.80885 2.56556 7944 ft 170 kts 270°
2026-05-05 19:52 51.80753 2.54658 7945 ft 170 kts 270°
2026-05-05 19:52 51.80618 2.52759 7946 ft 169 kts 271°
2026-05-05 19:52 51.80492 2.50861 7946 ft 170 kts 270°
2026-05-05 19:52 51.80355 2.48992 7946 ft 170 kts 268°
2026-05-05 19:53 51.80222 2.47102 7945 ft 169 kts 269°
2026-05-05 19:53 51.80095 2.45209 7948 ft 169 kts 266°
2026-05-05 19:53 51.79964 2.43309 7947 ft 170 kts 270°
2026-05-05 19:53 51.79824 2.41423 7940 ft 168 kts 267°
2026-05-05 19:54 51.79691 2.39550 7939 ft 167 kts 270°
2026-05-05 19:54 51.79561 2.37686 7938 ft 167 kts 268°
2026-05-05 19:54 51.79427 2.35824 7939 ft 167 kts 268°
2026-05-05 19:54 51.79296 2.33982 7939 ft 167 kts 268°
2026-05-05 19:55 51.79164 2.32121 7946 ft 166 kts 267°
2026-05-05 19:55 51.79034 2.30261 7948 ft 166 kts 269°
2026-05-05 19:55 51.78897 2.28399 7948 ft 167 kts 270°
2026-05-05 19:55 51.78760 2.26545 7948 ft 166 kts 267°
2026-05-05 19:56 51.78628 2.24684 7943 ft 167 kts 268°
2026-05-05 19:56 51.78494 2.22816 7943 ft 168 kts 271°
2026-05-05 19:56 51.78396 2.20940 7945 ft 168 kts 269°
2026-05-05 19:56 51.78283 2.19061 7946 ft 169 kts 272°
2026-05-05 19:57 51.78165 2.17172 7949 ft 169 kts 272°
2026-05-05 19:57 51.78050 2.15275 7948 ft 169 kts 272°
2026-05-05 19:57 51.77940 2.13403 7953 ft 169 kts 272°
2026-05-05 19:57 51.77827 2.11507 7954 ft 169 kts 268°
2026-05-05 19:58 51.77715 2.09615 7948 ft 169 kts 268°
2026-05-05 19:58 51.77602 2.07729 7951 ft 168 kts 274°
2026-05-05 19:58 51.77492 2.05848 7951 ft 168 kts 275°
2026-05-05 19:58 51.77389 2.03965 7951 ft 169 kts 266°
2026-05-05 19:59 51.77275 2.02086 7955 ft 168 kts 272°
2026-05-05 19:59 51.77160 2.00212 7956 ft 167 kts 269°
2026-05-05 19:59 51.77048 1.98338 7952 ft 167 kts 269°
2026-05-05 19:59 51.76936 1.96466 7952 ft 167 kts 269°
2026-05-05 20:00 51.76823 1.94597 7951 ft 168 kts 270°
2026-05-05 20:00 51.76714 1.92752 7948 ft 167 kts 270°
2026-05-05 20:00 51.76600 1.90889 7948 ft 166 kts 269°
2026-05-05 20:00 51.76484 1.89034 7949 ft 166 kts 271°
2026-05-05 20:01 51.76372 1.87182 7949 ft 166 kts 272°
2026-05-05 20:01 51.76261 1.85325 7949 ft 166 kts 269°
2026-05-05 20:01 51.76145 1.83468 7950 ft 166 kts 269°
2026-05-05 20:01 51.76031 1.81615 7950 ft 166 kts 272°
2026-05-05 20:02 51.75917 1.79759 7951 ft 166 kts 271°
2026-05-05 20:02 51.75802 1.77905 7951 ft 166 kts 270°
2026-05-05 20:02 51.75688 1.76051 7951 ft 166 kts 269°
2026-05-05 20:02 51.75574 1.74225 7953 ft 166 kts 270°
2026-05-05 20:03 51.75459 1.72376 7954 ft 166 kts 271°
2026-05-05 20:03 51.75345 1.70524 7953 ft 166 kts 271°
2026-05-05 20:03 51.75230 1.68667 7954 ft 166 kts 269°
2026-05-05 20:03 51.75113 1.66807 7955 ft 166 kts 269°
2026-05-05 20:04 51.74996 1.64949 7953 ft 166 kts 271°
2026-05-05 20:04 51.74881 1.63085 7954 ft 167 kts 271°
2026-05-05 20:04 51.74764 1.61223 7951 ft 167 kts 268°
2026-05-05 20:04 51.74641 1.59364 7954 ft 166 kts 271°
2026-05-05 20:05 51.74527 1.57504 7960 ft 166 kts 269°
2026-05-05 20:05 51.74407 1.55648 7960 ft 166 kts 269°
2026-05-05 20:05 51.74289 1.53812 7957 ft 166 kts 268°
2026-05-05 20:05 51.74170 1.51954 7961 ft 166 kts 269°
2026-05-05 20:06 51.74052 1.50096 7960 ft 166 kts 271°
2026-05-05 20:06 51.73934 1.48234 7960 ft 166 kts 268°
2026-05-05 20:06 51.73813 1.46375 7958 ft 166 kts 271°
2026-05-05 20:06 51.73695 1.44519 7953 ft 167 kts 269°
2026-05-05 20:07 51.73574 1.42658 7953 ft 166 kts 268°
2026-05-05 20:07 51.73450 1.40804 7954 ft 166 kts 269°
2026-05-05 20:07 51.73329 1.38950 7954 ft 166 kts 270°
2026-05-05 20:07 51.73213 1.37119 7955 ft 166 kts 270°
2026-05-05 20:08 51.73093 1.35263 7958 ft 166 kts 270°
2026-05-05 20:08 51.72971 1.33407 7959 ft 166 kts 269°
2026-05-05 20:08 51.72849 1.31550 7955 ft 166 kts 269°
2026-05-05 20:08 51.72727 1.29695 7959 ft 166 kts 269°
2026-05-05 20:09 51.72603 1.27841 7954 ft 166 kts 270°
2026-05-05 20:09 51.72482 1.25991 7959 ft 166 kts 268°
2026-05-05 20:09 51.72361 1.24165 7960 ft 166 kts 268°
2026-05-05 20:09 51.72238 1.22315 7960 ft 166 kts 270°
2026-05-05 20:10 51.72112 1.20467 7955 ft 165 kts 269°
2026-05-05 20:10 51.71988 1.18619 7957 ft 166 kts 268°
2026-05-05 20:10 51.71866 1.16773 7956 ft 165 kts 268°
2026-05-05 20:10 51.71742 1.14923 7959 ft 166 kts 269°
2026-05-05 20:11 51.71619 1.13078 7962 ft 166 kts 268°
2026-05-05 20:11 51.71494 1.11233 7958 ft 166 kts 268°
2026-05-05 20:11 51.71369 1.09385 7961 ft 166 kts 268°
2026-05-05 20:11 51.71244 1.07545 7962 ft 165 kts 269°
2026-05-05 20:12 51.71120 1.05724 7961 ft 165 kts 268°
2026-05-05 20:12 51.70992 1.03878 7963 ft 166 kts 269°
2026-05-05 20:12 51.70869 1.02027 7962 ft 166 kts 269°
2026-05-05 20:12 51.70739 1.00166 7964 ft 167 kts 268°
2026-05-05 20:13 51.70613 0.98305 7959 ft 167 kts 268°
2026-05-05 20:13 51.70486 0.96450 7951 ft 167 kts 267°
2026-05-05 20:13 51.70225 0.94626 7945 ft 170 kts 249°
2026-05-05 20:13 51.69632 0.92972 7955 ft 170 kts 241°
2026-05-05 20:14 51.69006 0.91352 7959 ft 171 kts 241°
2026-05-05 20:14 51.68378 0.89730 7965 ft 170 kts 241°
2026-05-05 20:14 51.67751 0.88105 7965 ft 170 kts 241°
2026-05-05 20:14 51.67132 0.86497 7966 ft 171 kts 241°
2026-05-05 20:15 51.66505 0.84871 7964 ft 171 kts 241°
2026-05-05 20:15 51.65881 0.83250 7964 ft 170 kts 241°
2026-05-05 20:15 51.65257 0.81633 7965 ft 170 kts 241°
2026-05-05 20:15 51.64633 0.80017 7962 ft 170 kts 241°
2026-05-05 20:16 51.64010 0.78403 7963 ft 170 kts 241°
2026-05-05 20:16 51.63386 0.76788 7966 ft 170 kts 241°
2026-05-05 20:16 51.62762 0.75175 7965 ft 170 kts 241°
2026-05-05 20:16 51.62249 0.73473 7963 ft 168 kts 250°
2026-05-05 20:17 51.61794 0.71735 7967 ft 168 kts 251°
2026-05-05 20:17 51.61347 0.70014 7966 ft 168 kts 250°
2026-05-05 20:17 51.60891 0.68272 7966 ft 169 kts 250°
2026-05-05 20:17 51.60434 0.66530 7964 ft 169 kts 250°
2026-05-05 20:18 51.59978 0.64791 7965 ft 169 kts 250°
2026-05-05 20:18 51.59521 0.63054 7963 ft 169 kts 250°
2026-05-05 20:18 51.59064 0.61315 7962 ft 169 kts 250°
2026-05-05 20:18 51.58606 0.59577 7962 ft 169 kts 250°
2026-05-05 20:19 51.58148 0.57835 7958 ft 169 kts 250°
2026-05-05 20:19 51.57692 0.56104 7966 ft 168 kts 250°
2026-05-05 20:19 51.57235 0.54373 7966 ft 168 kts 250°
2026-05-05 20:19 51.56777 0.52642 7966 ft 168 kts 251°
2026-05-05 20:20 51.56326 0.50932 7961 ft 169 kts 251°
2026-05-05 20:20 51.55867 0.49197 7962 ft 169 kts 251°
2026-05-05 20:20 51.55408 0.47464 7955 ft 168 kts 250°
2026-05-05 20:20 51.54950 0.45735 7959 ft 168 kts 250°
2026-05-05 20:21 51.54493 0.44010 7963 ft 168 kts 250°
2026-05-05 20:21 51.54036 0.42287 7958 ft 167 kts 250°
2026-05-05 20:21 51.53578 0.40565 7963 ft 167 kts 250°
2026-05-05 20:21 51.53120 0.38840 7959 ft 168 kts 250°
2026-05-05 20:22 51.52662 0.37117 7956 ft 168 kts 250°
2026-05-05 20:22 51.52204 0.35393 7964 ft 167 kts 250°
2026-05-05 20:22 51.51752 0.33697 7960 ft 168 kts 250°
2026-05-05 20:22 51.51293 0.31974 7957 ft 168 kts 250°
2026-05-05 20:23 51.50834 0.30255 7958 ft 168 kts 250°
2026-05-05 20:23 51.50373 0.28528 7957 ft 168 kts 250°
2026-05-05 20:23 51.49913 0.26805 7965 ft 168 kts 250°
2026-05-05 20:23 51.49451 0.25079 7959 ft 168 kts 250°
2026-05-05 20:24 51.48989 0.23350 7961 ft 168 kts 250°
2026-05-05 20:24 51.48528 0.21628 7963 ft 168 kts 250°
2026-05-05 20:24 51.48067 0.19906 7966 ft 168 kts 250°
2026-05-05 20:24 51.47607 0.18190 7962 ft 168 kts 250°
2026-05-05 20:25 51.47144 0.16464 7964 ft 168 kts 250°
2026-05-05 20:25 51.46688 0.14765 7968 ft 167 kts 250°
2026-05-05 20:25 51.46228 0.13054 7966 ft 167 kts 250°
2026-05-05 20:25 51.45768 0.11343 7964 ft 167 kts 250°
2026-05-05 20:26 51.45306 0.09626 7958 ft 167 kts 250°
2026-05-05 20:26 51.44845 0.07913 7960 ft 167 kts 250°
2026-05-05 20:26 51.44382 0.06197 7963 ft 167 kts 250°
2026-05-05 20:26 51.43920 0.04484 7955 ft 167 kts 250°
2026-05-05 20:27 51.43457 0.02769 7960 ft 168 kts 250°
2026-05-05 20:27 51.42993 0.01052 7966 ft 168 kts 250°
2026-05-05 20:27 51.42528 -0.00667 7955 ft 168 kts 250°
2026-05-05 20:27 51.42063 -0.02385 7953 ft 167 kts 250°
2026-05-05 20:28 51.41601 -0.04095 7945 ft 167 kts 250°
2026-05-05 20:28 51.41295 -0.05225 7946 ft 167 kts 250°
2026-05-05 20:28 51.40681 -0.07491 7947 ft 167 kts 250°
2026-05-05 20:28 51.40219 -0.09193 7949 ft 167 kts 250°
2026-05-05 20:29 51.39756 -0.10900 7953 ft 167 kts 250°
2026-05-05 20:29 51.39292 -0.12605 7952 ft 167 kts 250°
2026-05-05 20:29 51.38987 -0.13730 7956 ft 167 kts 250°
2026-05-05 20:29 51.38522 -0.15439 7955 ft 167 kts 250°
2026-05-05 20:30 51.38058 -0.17140 7951 ft 167 kts 250°
2026-05-05 20:30 51.37595 -0.18842 7955 ft 167 kts 250°
2026-05-05 20:30 51.37131 -0.20541 7956 ft 167 kts 250°
2026-05-05 20:30 51.36666 -0.22247 7958 ft 167 kts 250°
2026-05-05 20:31 51.36203 -0.23944 7953 ft 167 kts 250°
2026-05-05 20:31 51.35738 -0.25645 7951 ft 167 kts 250°
2026-05-05 20:31 51.35275 -0.27339 7955 ft 166 kts 250°
2026-05-05 20:31 51.34817 -0.29015 7950 ft 166 kts 250°
2026-05-05 20:32 51.34346 -0.30734 7956 ft 166 kts 250°
2026-05-05 20:32 51.33888 -0.32405 7955 ft 166 kts 250°
2026-05-05 20:32 51.33416 -0.34125 7964 ft 167 kts 250°
2026-05-05 20:32 51.32949 -0.35830 7950 ft 168 kts 250°
2026-05-05 20:33 51.32484 -0.37520 7950 ft 168 kts 250°
2026-05-05 20:33 51.32013 -0.39236 7950 ft 168 kts 250°
2026-05-05 20:33 51.31541 -0.40953 7948 ft 169 kts 250°
2026-05-05 20:33 51.31069 -0.42667 7953 ft 169 kts 250°
2026-05-05 20:34 51.30597 -0.44389 7956 ft 169 kts 252°
2026-05-05 20:34 51.30304 -0.46188 7947 ft 167 kts 262°
2026-05-05 20:34 51.30065 -0.48002 7958 ft 167 kts 262°
2026-05-05 20:34 51.29827 -0.49820 7956 ft 167 kts 262°
2026-05-05 20:35 51.29586 -0.51638 7959 ft 167 kts 262°
2026-05-05 20:35 51.29348 -0.53426 7958 ft 167 kts 262°
2026-05-05 20:35 51.29106 -0.55241 7961 ft 167 kts 262°
2026-05-05 20:35 51.28864 -0.57057 7955 ft 167 kts 262°
2026-05-05 20:36 51.28622 -0.58872 7961 ft 167 kts 262°
2026-05-05 20:36 51.28379 -0.60685 7962 ft 167 kts 262°
2026-05-05 20:36 51.28136 -0.62499 7963 ft 167 kts 262°
2026-05-05 20:36 51.27894 -0.64308 7963 ft 166 kts 262°
2026-05-05 20:37 51.27654 -0.66093 7959 ft 166 kts 262°
2026-05-05 20:37 51.27411 -0.67901 7965 ft 167 kts 262°
2026-05-05 20:37 51.27167 -0.69712 7965 ft 167 kts 262°
2026-05-05 20:37 51.26923 -0.71524 7965 ft 167 kts 262°
2026-05-05 20:38 51.26679 -0.73332 7965 ft 167 kts 262°
2026-05-05 20:38 51.26434 -0.75141 7965 ft 167 kts 262°
2026-05-05 20:38 51.26189 -0.76953 7965 ft 167 kts 261°
2026-05-05 20:38 51.25943 -0.78769 7966 ft 167 kts 262°
2026-05-05 20:39 51.25697 -0.80582 7957 ft 167 kts 261°
2026-05-05 20:39 51.25450 -0.82396 7959 ft 167 kts 261°
2026-05-05 20:39 51.25203 -0.84210 7959 ft 167 kts 261°
2026-05-05 20:39 51.24956 -0.86027 7963 ft 167 kts 261°
2026-05-05 20:40 51.24709 -0.87841 7967 ft 167 kts 262°
2026-05-05 20:40 51.24465 -0.89628 7967 ft 167 kts 261°
2026-05-05 20:40 51.24218 -0.91439 7969 ft 167 kts 261°
2026-05-05 20:40 51.23968 -0.93265 7963 ft 166 kts 262°
2026-05-05 20:41 51.23725 -0.95037 7966 ft 165 kts 262°
2026-05-05 20:41 51.23480 -0.96825 7960 ft 165 kts 261°
2026-05-05 20:41 51.23234 -0.98618 7957 ft 165 kts 261°
2026-05-05 20:41 51.22988 -1.00407 7957 ft 165 kts 261°
2026-05-05 20:42 51.22741 -1.02197 7958 ft 165 kts 261°
2026-05-05 20:42 51.22494 -1.03991 7964 ft 166 kts 261°
2026-05-05 20:42 51.22245 -1.05793 7964 ft 166 kts 261°
2026-05-05 20:42 51.21997 -1.07590 7954 ft 166 kts 261°
2026-05-05 20:43 51.21748 -1.09393 7958 ft 166 kts 261°
2026-05-05 20:43 51.21500 -1.11186 7962 ft 165 kts 261°
2026-05-05 20:43 51.21251 -1.12984 7960 ft 166 kts 261°
2026-05-05 20:43 51.21004 -1.14755 7961 ft 166 kts 261°
2026-05-05 20:44 51.20755 -1.16546 7956 ft 165 kts 261°
2026-05-05 20:44 51.20507 -1.18337 7963 ft 165 kts 261°
2026-05-05 20:44 51.20257 -1.20130 7960 ft 166 kts 261°
2026-05-05 20:44 51.20002 -1.21924 7956 ft 166 kts 258°
2026-05-05 20:45 51.18541 -1.24755 7954 ft 173 kts 207°
2026-05-05 20:45 51.17393 -1.25342 7963 ft 174 kts 196°
2026-05-05 20:45 51.16222 -1.25831 7961 ft 174 kts 195°
2026-05-05 20:46 51.15048 -1.26318 7956 ft 174 kts 195°
2026-05-05 20:46 51.13886 -1.26804 7961 ft 174 kts 196°
2026-05-05 20:46 51.12714 -1.27297 7961 ft 174 kts 196°
2026-05-05 20:46 51.11543 -1.27790 7964 ft 174 kts 196°
2026-05-05 20:47 51.10373 -1.28281 7966 ft 173 kts 196°
2026-05-05 20:47 51.09207 -1.28771 7967 ft 173 kts 196°
2026-05-05 20:47 51.08043 -1.29261 7962 ft 173 kts 196°
2026-05-05 20:47 51.06878 -1.29750 7960 ft 174 kts 196°
2026-05-05 20:48 51.05709 -1.30241 7957 ft 174 kts 196°
2026-05-05 20:48 51.04538 -1.30732 7966 ft 174 kts 196°
2026-05-05 20:48 51.03366 -1.31223 7967 ft 174 kts 196°
2026-05-05 20:48 51.02195 -1.31714 7967 ft 174 kts 196°
2026-05-05 20:49 51.01029 -1.32202 7966 ft 173 kts 196°
2026-05-05 20:49 50.99861 -1.32692 7968 ft 173 kts 196°
2026-05-05 20:49 50.98690 -1.33181 7964 ft 174 kts 196°
2026-05-05 20:49 50.97519 -1.33671 7965 ft 174 kts 196°
2026-05-05 20:50 50.96370 -1.34185 7961 ft 174 kts 202°
2026-05-05 20:50 50.95398 -1.35262 7959 ft 170 kts 236°
2026-05-05 20:50 50.94919 -1.36935 7974 ft 166 kts 256°
2026-05-05 20:50 50.94575 -1.38687 7970 ft 166 kts 255°
2026-05-05 20:51 50.94199 -1.40428 7971 ft 167 kts 253°
2026-05-05 20:51 50.93798 -1.42162 7969 ft 167 kts 252°
2026-05-05 20:51 50.93389 -1.43888 7954 ft 168 kts 252°
2026-05-05 20:51 50.92979 -1.45626 7962 ft 168 kts 252°
2026-05-05 20:52 50.92575 -1.47342 7966 ft 168 kts 252°
2026-05-05 20:52 50.92164 -1.49083 7960 ft 168 kts 251°
2026-05-05 20:52 50.91753 -1.50820 7964 ft 168 kts 251°
2026-05-05 20:52 50.91341 -1.52560 7962 ft 169 kts 251°
2026-05-05 20:53 50.90929 -1.54303 7959 ft 169 kts 251°
2026-05-05 20:53 50.90505 -1.56095 7757 ft 179 kts 251°
2026-05-05 20:53 50.90060 -1.57976 7516 ft 185 kts 251°
2026-05-05 20:53 50.89602 -1.59905 7271 ft 188 kts 251°
2026-05-05 20:54 50.89140 -1.61851 7016 ft 189 kts 251°
2026-05-05 20:54 50.88675 -1.63806 6770 ft 189 kts 250°
2026-05-05 20:54 50.88207 -1.65760 6519 ft 189 kts 250°
2026-05-05 20:54 50.87743 -1.67712 6257 ft 189 kts 250°
2026-05-05 20:55 50.87293 -1.69608 6014 ft 183 kts 250°
2026-05-05 20:55 50.86847 -1.71474 5773 ft 179 kts 250°
2026-05-05 20:55 50.86403 -1.73330 5533 ft 177 kts 251°
2026-05-05 20:55 50.85975 -1.75116 5338 ft 174 kts 251°
2026-05-05 20:56 50.85546 -1.76911 5110 ft 174 kts 251°
2026-05-05 20:56 50.85051 -1.78664 4870 ft 176 kts 236°
2026-05-05 20:56 50.84462 -1.80284 4819 ft 165 kts 252°
2026-05-05 20:56 50.84121 -1.82043 4599 ft 170 kts 256°
2026-05-05 20:57 50.83766 -1.83841 4360 ft 172 kts 253°
2026-05-05 20:57 50.83363 -1.85635 4113 ft 174 kts 252°
2026-05-05 20:57 50.82941 -1.87427 3874 ft 174 kts 252°
2026-05-05 20:57 50.82515 -1.89231 3626 ft 175 kts 251°
2026-05-05 20:58 50.82087 -1.91037 3381 ft 176 kts 251°
2026-05-05 20:58 50.81658 -1.92856 3132 ft 177 kts 251°
2026-05-05 20:58 50.81650 -1.92888 3127 ft 177 kts 251°
2026-05-05 20:58 50.81315 -1.94306 2933 ft 176 kts 252°
2026-05-05 20:59 50.80884 -1.96128 2684 ft 177 kts 252°
2026-05-05 20:59 50.80453 -1.97948 2436 ft 175 kts 253°
2026-05-05 20:59 50.80030 -1.99740 2191 ft 172 kts 253°
2026-05-05 20:59 50.79612 -2.01501 1951 ft 170 kts 254°
2026-05-05 21:00 50.79204 -2.03220 1723 ft 168 kts 254°
2026-05-05 21:00 50.78793 -2.04936 1505 ft 164 kts 252°
2026-05-05 21:00 50.78121 -2.06327 1512 ft 161 kts 220°
2026-05-05 21:00 50.77096 -2.06969 1508 ft 160 kts 184°
2026-05-05 21:01 50.76022 -2.06691 1505 ft 155 kts 150°
2026-05-05 21:01 50.75217 -2.05652 1507 ft 147 kts 119°
2026-05-05 21:01 50.74845 -2.04217 1501 ft 138 kts 92°
2026-05-05 21:01 50.74912 -2.02760 1507 ft 131 kts 70°
2026-05-05 21:02 50.75144 -2.01372 1509 ft 131 kts 69°
2026-05-05 21:02 50.75388 -1.99987 1505 ft 131 kts 68°
2026-05-05 21:02 50.75616 -1.98621 1520 ft 122 kts 69°
2026-05-05 21:02 50.75817 -1.97401 1490 ft 105 kts 68°
2026-05-05 21:03 50.75988 -1.96371 1492 ft 92 kts 67°
2026-05-05 21:03 50.76157 -1.95375 1397 ft 96 kts 68°
2026-05-05 21:03 50.76330 -1.94349 1271 ft 99 kts 68°
2026-05-05 21:03 50.76513 -1.93258 1122 ft 104 kts 71°
2026-05-05 21:04 50.76694 -1.92151 976 ft 107 kts 69°
2026-05-05 21:04 50.76885 -1.91002 829 ft 109 kts 70°
2026-05-05 21:04 50.77079 -1.89849 664 ft 109 kts 70°
2026-05-05 21:04 50.77260 -1.88801 585 ft 89 kts 70°
2026-05-05 21:05 50.77393 -1.87897 455 ft 83 kts 68°
2026-05-05 21:05 50.77559 -1.87007 333 ft 86 kts 70°
2026-05-05 21:05 50.77709 -1.86081 211 ft 87 kts 70°
2026-05-05 21:05 50.77861 -1.85149 60 ft 87 kts 73°
2026-05-05 21:06 50.77987 -1.84426 36 ft 55 kts 76°
2026-05-05 21:06 50.78055 -1.83992 39 ft 21 kts 75°
2026-05-05 21:06 50.78125 -1.83929 40 ft 13 kts 345°
2026-05-05 21:06 50.78218 -1.83963 40 ft 8 kts 344°
2026-05-05 21:07 50.78272 -1.83988 40 ft 10 kts 345°
2026-05-05 21:07 50.78347 -1.84022 40 ft 13 kts 345°
2026-05-05 21:07 50.78383 -1.84013 40 ft 5 kts 101°
2026-05-05 21:07 50.78389 -1.83998 40 ft 6 kts 321°
2026-05-05 21:08 50.78426 -1.84051 40 ft 10 kts 335°
2026-05-05 21:08 50.78466 -1.83989 40 ft 13 kts 103°
2026-05-05 21:08 50.78444 -1.83829 40 ft 17 kts 103°
2026-05-05 21:08 50.78431 -1.83695 40 ft 5 kts 55°
2026-05-05 21:09 50.78458 -1.83649 40 ft 6 kts 88°
2026-05-05 21:09 50.78450 -1.83633 40 ft 0 kts 231°